| time (UTC) | temp F | wind direction | speed MPH | gust MPH | rain 1hr in | rain 24hr in | rain mn in | humidity % | barometer mb |
| 20260902033708 | 80 | 56 | 4.0 | 6.0 | 0.00 | 0.01 | 0.01 | 92 | 1016.3 |
| 20260902033212 | 80 | 55 | 4.0 | 6.0 | 0.00 | 0.01 | 0.01 | 92 | 1016.3 |
| 20260902032737 | 80 | 56 | 5.0 | 6.0 | 0.00 | 0.01 | 0.01 | 91 | 1016.4 |
| 20260902032220 | 80 | 57 | 5.0 | 6.0 | 0.00 | 0.01 | 0.01 | 92 | 1016.4 |
| 20260902031725 | 80 | 58 | 5.0 | 6.0 | 0.00 | 0.01 | 0.01 | 91 | 1016.5 |
| 20260902031209 | 80 | 56 | 5.0 | 6.0 | 0.00 | 0.01 | 0.01 | 91 | 1016.5 |
| 20260902030713 | 80 | 60 | 4.0 | 5.0 | 0.00 | 0.01 | 0.01 | 91 | 1016.6 |
| 20260902030217 | 80 | 56 | 4.0 | 6.0 | 0.00 | 0.01 | 0.01 | 91 | 1016.6 |
| 20260902025721 | 80 | 56 | 5.0 | 7.0 | 0.00 | 0.01 | 0.01 | 91 | 1016.7 |
| 20260902025225 | 80 | 52 | 5.0 | 7.0 | 0.00 | 0.01 | 0.01 | 91 | 1016.7 |
| 20260902024709 | 80 | 53 | 5.0 | 6.0 | 0.00 | 0.01 | 0.01 | 91 | 1016.8 |
| 20260902024218 | 80 | 54 | 5.0 | 6.0 | 0.00 | 0.01 | 0.01 | 91 | 1016.8 |
| 20260902023721 | 80 | 59 | 4.0 | 5.0 | 0.00 | 0.01 | 0.01 | 91 | 1016.9 |
| 20260902023226 | 80 | 52 | 4.0 | 5.0 | 0.00 | 0.01 | 0.01 | 91 | 1017.0 |
| 20260902022711 | 80 | 55 | 4.0 | 6.0 | 0.00 | 0.01 | 0.01 | 90 | 1017.0 |
| 20260902022235 | 80 | 56 | 4.0 | 6.0 | 0.00 | 0.01 | 0.01 | 91 | 1016.9 |
| 20260902021719 | 80 | 58 | 4.0 | 5.0 | 0.00 | 0.01 | 0.01 | 90 | 1016.9 |
| 20260902021224 | 80 | 54 | 4.0 | 5.0 | 0.00 | 0.01 | 0.01 | 90 | 1016.9 |
| 20260902020721 | 80 | 52 | 4.0 | 5.0 | 0.00 | 0.01 | 0.01 | 90 | 1016.8 |
| 20260902020226 | 80 | 42 | 4.0 | 5.0 | 0.00 | 0.01 | 0.01 | 90 | 1016.8 |
| 20260902015709 | 80 | 53 | 3.0 | 6.0 | 0.00 | 0.01 | 0.01 | 90 | 1016.8 |
| 20260902015214 | 81 | 58 | 4.0 | 6.0 | 0.00 | 0.01 | 0.01 | 89 | 1016.8 |
| 20260902014719 | 81 | 56 | 4.0 | 6.0 | 0.00 | 0.01 | 0.01 | 89 | 1016.7 |
| 20260902014228 | 81 | 51 | 5.0 | 6.0 | 0.00 | 0.01 | 0.01 | 89 | 1016.7 |
| 20260902013710 | 81 | 54 | 5.0 | 6.0 | 0.00 | 0.01 | 0.01 | 89 | 1016.6 |
| 20260902013213 | 81 | 51 | 4.0 | 6.0 | 0.00 | 0.01 | 0.01 | 89 | 1016.5 |
| 20260902012718 | 81 | 51 | 5.0 | 6.0 | 0.00 | 0.01 | 0.01 | 88 | 1016.5 |
| 20260902012223 | 81 | 53 | 4.0 | 5.0 | 0.00 | 0.01 | 0.01 | 89 | 1016.4 |
| 20260902011708 | 81 | 50 | 4.0 | 5.0 | 0.00 | 0.01 | 0.01 | 88 | 1016.4 |
| 20260902011212 | 81 | 44 | 4.0 | 6.0 | 0.00 | 0.01 | 0.01 | 88 | 1016.3 |
| 20260902010738 | 81 | 46 | 5.0 | 6.0 | 0.00 | 0.01 | 0.01 | 88 | 1016.4 |
| 20260902010221 | 81 | 50 | 5.0 | 6.0 | 0.00 | 0.01 | 0.01 | 88 | 1016.3 |
| 20260902005726 | 81 | 54 | 4.0 | 6.0 | 0.00 | 0.01 | 0.01 | 88 | 1016.3 |
| 20260902005211 | 81 | 56 | 4.0 | 6.0 | 0.00 | 0.01 | 0.01 | 88 | 1016.2 |
| 20260902004720 | 81 | 56 | 4.0 | 6.0 | 0.00 | 0.01 | 0.01 | 87 | 1016.2 |
| 20260902004225 | 81 | 43 | 5.0 | 7.0 | 0.00 | 0.01 | 0.01 | 87 | 1016.2 |
| 20260902003710 | 82 | 49 | 5.0 | 7.0 | 0.00 | 0.01 | 0.01 | 88 | 1016.2 |
| 20260902003213 | 82 | 44 | 5.0 | 7.0 | 0.00 | 0.01 | 0.01 | 87 | 1016.1 |
| 20260902002718 | 82 | 31 | 5.0 | 7.0 | 0.00 | 0.01 | 0.01 | 87 | 1016.2 |
| 20260902002222 | 82 | 47 | 6.0 | 7.0 | 0.00 | 0.01 | 0.01 | 87 | 1016.2 |
| 20260902001747 | 82 | 52 | 5.0 | 7.0 | 0.00 | 0.01 | 0.01 | 87 | 1016.3 |
| 20260902001230 | 82 | 36 | 6.0 | 8.0 | 0.00 | 0.01 | 0.01 | 87 | 1016.3 |
| 20260902000724 | 82 | 49 | 6.0 | 8.0 | 0.00 | 0.01 | 0.01 | 86 | 1016.3 |
| 20260902000208 | 82 | 40 | 5.0 | 7.0 | 0.00 | 0.01 | 0.01 | 86 | 1016.3 |
| 20260901235713 | 82 | 51 | 5.0 | 9.0 | 0.00 | 0.01 | 0.01 | 86 | 1016.2 |
| 20260901235227 | 83 | 49 | 6.0 | 10.0 | 0.00 | 0.01 | 0.01 | 87 | 1016.3 |
| 20260901234708 | 83 | 58 | 8.0 | 10.0 | 0.00 | 0.01 | 0.01 | 86 | 1016.3 |
| 20260901234233 | 83 | 63 | 8.0 | 12.0 | 0.00 | 0.01 | 0.01 | 87 | 1016.2 |
| 20260901233717 | 83 | 88 | 9.0 | 12.0 | 0.00 | 0.01 | 0.01 | 86 | 1016.3 |
| 20260901233222 | 83 | 69 | 8.0 | 12.0 | 0.00 | 0.01 | 0.01 | 87 | 1016.2 |
| 20260901232710 | 83 | 70 | 9.0 | 10.0 | 0.00 | 0.01 | 0.01 | 87 | 1016.2 |
| 20260901232215 | 83 | 67 | 8.0 | 11.0 | 0.00 | 0.01 | 0.01 | 87 | 1016.1 |
| 20260901231719 | 83 | 68 | 7.0 | 9.0 | 0.00 | 0.01 | 0.01 | 86 | 1016.1 |
| 20260901231224 | 83 | 51 | 5.0 | 10.0 | 0.00 | 0.01 | 0.01 | 87 | 1016.1 |
| 20260901230708 | 83 | 50 | 8.0 | 10.0 | 0.00 | 0.01 | 0.01 | 86 | 1016.2 |
| 20260901230212 | 83 | 46 | 8.0 | 10.0 | 0.00 | 0.01 | 0.01 | 86 | 1016.2 |
| 20260901225717 | 83 | 47 | 7.0 | 11.0 | 0.00 | 0.01 | 0.01 | 86 | 1016.1 |
| 20260901225221 | 83 | 51 | 8.0 | 13.0 | 0.00 | 0.01 | 0.01 | 86 | 1016.1 |
| 20260901224726 | 83 | 42 | 8.0 | 13.0 | 0.00 | 0.01 | 0.01 | 85 | 1016.2 |
| 20260901224211 | 83 | 45 | 9.0 | 14.0 | 0.00 | 0.01 | 0.01 | 86 | 1016.1 |
| 20260901223720 | 83 | 49 | 11.0 | 14.0 | 0.00 | 0.01 | 0.01 | 86 | 1016.1 |
| 20260901223226 | 83 | 38 | 10.0 | 13.0 | 0.00 | 0.01 | 0.01 | 86 | 1015.9 |
| 20260901222709 | 83 | 42 | 9.0 | 15.0 | 0.00 | 0.01 | 0.01 | 85 | 1015.9 |
| 20260901222234 | 83 | 59 | 10.0 | 18.0 | 0.00 | 0.01 | 0.01 | 86 | 1015.8 |
| 20260901221718 | 83 | 53 | 13.0 | 18.0 | 0.00 | 0.01 | 0.01 | 84 | 1015.7 |
| 20260901221243 | 84 | 65 | 12.0 | 16.0 | 0.00 | 0.01 | 0.01 | 85 | 1015.6 |
| 20260901220718 | 84 | 70 | 11.0 | 15.0 | 0.00 | 0.01 | 0.01 | 85 | 1015.5 |
| 20260901220224 | 84 | 47 | 12.0 | 15.0 | 0.00 | 0.01 | 0.01 | 85 | 1015.5 |
| 20260901215708 | 84 | 63 | 11.0 | 15.0 | 0.00 | 0.01 | 0.01 | 84 | 1015.4 |
| 20260901215233 | 84 | 54 | 10.0 | 15.0 | 0.00 | 0.01 | 0.01 | 84 | 1015.3 |
| 20260901214717 | 84 | 66 | 10.0 | 15.0 | 0.00 | 0.01 | 0.01 | 83 | 1015.4 |
| 20260901214221 | 84 | 48 | 12.0 | 15.0 | 0.00 | 0.01 | 0.01 | 83 | 1015.5 |
| 20260901213727 | 84 | 44 | 10.0 | 15.0 | 0.00 | 0.01 | 0.01 | 83 | 1015.5 |
| 20260901213215 | 84 | 70 | 11.0 | 14.0 | 0.00 | 0.01 | 0.01 | 83 | 1015.6 |
| 20260901212719 | 84 | 65 | 10.0 | 15.0 | 0.00 | 0.01 | 0.01 | 83 | 1015.6 |
| 20260901212224 | 84 | 49 | 10.0 | 15.0 | 0.00 | 0.01 | 0.01 | 83 | 1015.6 |
| 20260901211709 | 84 | 69 | 12.0 | 17.0 | 0.00 | 0.01 | 0.01 | 84 | 1015.6 |
| 20260901211215 | 84 | 56 | 12.0 | 17.0 | 0.00 | 0.01 | 0.01 | 84 | 1015.6 |
| 20260901210719 | 84 | 59 | 12.0 | 18.0 | 0.00 | 0.01 | 0.01 | 82 | 1015.5 |
| 20260901210224 | 84 | 63 | 13.0 | 18.0 | 0.00 | 0.01 | 0.01 | 83 | 1015.5 |
| 20260901205748 | 84 | 48 | 15.0 | 19.0 | 0.00 | 0.03 | 0.01 | 83 | 1015.5 |
| 20260901205212 | 84 | 52 | 15.0 | 19.0 | 0.00 | 0.03 | 0.01 | 83 | 1015.6 |
| 20260901204717 | 84 | 47 | 13.0 | 17.0 | 0.00 | 0.03 | 0.01 | 83 | 1015.7 |
| 20260901204221 | 85 | 40 | 11.0 | 14.0 | 0.00 | 0.03 | 0.01 | 83 | 1015.8 |
| 20260901203710 | 85 | 62 | 10.0 | 14.0 | 0.00 | 0.03 | 0.01 | 83 | 1015.9 |
| 20260901203215 | 85 | 49 | 9.0 | 14.0 | 0.00 | 0.03 | 0.01 | 83 | 1015.9 |
| 20260901202719 | 85 | 59 | 11.0 | 14.0 | 0.00 | 0.03 | 0.01 | 81 | 1015.9 |
| 20260901202224 | 85 | 63 | 10.0 | 15.0 | 0.00 | 0.03 | 0.01 | 82 | 1015.9 |
| 20260901201729 | 85 | 59 | 13.0 | 16.0 | 0.00 | 0.03 | 0.01 | 80 | 1016.0 |
| 20260901201213 | 85 | 66 | 13.0 | 16.0 | 0.00 | 0.03 | 0.01 | 81 | 1015.9 |
| 20260901200709 | 85 | 68 | 12.0 | 15.0 | 0.00 | 0.03 | 0.01 | 80 | 1016.0 |
| 20260901200214 | 85 | 67 | 11.0 | 18.0 | 0.00 | 0.19 | 0.01 | 79 | 1016.0 |
| 20260901195717 | 85 | 64 | 10.0 | 20.0 | 0.00 | 0.19 | 0.01 | 81 | 1016.1 |
| 20260901195222 | 86 | 66 | 17.0 | 20.0 | 0.00 | 0.19 | 0.01 | 80 | 1016.2 |
| 20260901194726 | 86 | 75 | 11.0 | 15.0 | 0.00 | 0.19 | 0.01 | 78 | 1016.0 |
| 20260901194231 | 86 | 66 | 12.0 | 15.0 | 0.00 | 0.19 | 0.01 | 79 | 1016.1 |
| 20260901193715 | 86 | 63 | 12.0 | 15.0 | 0.00 | 0.19 | 0.01 | 78 | 1016.0 |
| 20260901193225 | 86 | 56 | 10.0 | 13.0 | 0.00 | 0.19 | 0.01 | 79 | 1016.0 |
| 20260901192708 | 86 | 63 | 10.0 | 14.0 | 0.00 | 0.19 | 0.01 | 78 | 1016.0 |
| 20260901192213 | 87 | 78 | 12.0 | 14.0 | 0.00 | 0.19 | 0.01 | 75 | 1016.1 |
| 20260901191717 | 86 | 82 | 8.0 | 13.0 | 0.00 | 0.19 | 0.01 | 75 | 1016.1 |
| 20260901191222 | 86 | 83 | 10.0 | 14.0 | 0.00 | 0.19 | 0.01 | 76 | 1016.1 |
| 20260901190747 | 86 | 84 | 10.0 | 15.0 | 0.00 | 0.19 | 0.01 | 76 | 1016.0 |
| 20260901190211 | 87 | 69 | 12.0 | 15.0 | 0.00 | 0.19 | 0.01 | 78 | 1016.0 |
| 20260901185716 | 87 | 63 | 10.0 | 13.0 | 0.00 | 0.19 | 0.01 | 76 | 1016.0 |
| 20260901185220 | 87 | 63 | 9.0 | 13.0 | 0.00 | 0.19 | 0.01 | 75 | 1016.0 |
| 20260901184745 | 87 | 82 | 12.0 | 13.0 | 0.00 | 0.19 | 0.01 | 74 | 1016.1 |
| 20260901184209 | 87 | 62 | 9.0 | 12.0 | 0.00 | 0.19 | 0.01 | 74 | 1016.1 |
| 20260901183715 | 87 | 59 | 10.0 | 14.0 | 0.00 | 0.19 | 0.01 | 76 | 1016.1 |
| 20260901183223 | 87 | 54 | 10.0 | 14.0 | 0.00 | 0.19 | 0.01 | 74 | 1016.1 |
| 20260901182708 | 87 | 70 | 7.0 | 12.0 | 0.00 | 0.19 | 0.01 | 75 | 1016.2 |
| 20260901182213 | 87 | 51 | 11.0 | 12.0 | 0.00 | 0.19 | 0.01 | 73 | 1016.3 |
| 20260901181717 | 87 | 58 | 9.0 | 12.0 | 0.00 | 0.19 | 0.01 | 73 | 1016.3 |
| 20260901181222 | 87 | 51 | 8.0 | 14.0 | 0.00 | 0.19 | 0.01 | 73 | 1016.3 |
| 20260901180719 | 87 | 51 | 8.0 | 14.0 | 0.00 | 0.19 | 0.01 | 73 | 1016.3 |
| 20260901180225 | 87 | 54 | 9.0 | 12.0 | 0.00 | 0.19 | 0.01 | 73 | 1016.4 |
| 20260901175709 | 87 | 67 | 6.0 | 8.0 | 0.00 | 0.19 | 0.01 | 71 | 1016.5 |
| 20260901175213 | 87 | 38 | 5.0 | 8.0 | 0.00 | 0.19 | 0.01 | 69 | 1016.5 |
| 20260901174738 | 87 | 61 | 5.0 | 10.0 | 0.00 | 0.19 | 0.01 | 71 | 1016.6 |
| 20260901174221 | 87 | 42 | 7.0 | 10.0 | 0.00 | 0.19 | 0.01 | 71 | 1016.8 |
| 20260901173746 | 87 | 45 | 8.0 | 13.0 | 0.00 | 0.19 | 0.01 | 73 | 1016.8 |
| 20260901173212 | 87 | 49 | 9.0 | 13.0 | 0.00 | 0.19 | 0.01 | 76 | 1016.8 |
| 20260901172716 | 87 | 70 | 9.0 | 13.0 | 0.00 | 0.19 | 0.01 | 75 | 1016.8 |
| 20260901172220 | 87 | 59 | 10.0 | 13.0 | 0.00 | 0.19 | 0.01 | 76 | 1016.9 |
| 20260901171725 | 87 | 75 | 9.0 | 11.0 | 0.00 | 0.19 | 0.01 | 75 | 1017.0 |
| 20260901171210 | 86 | 65 | 8.0 | 12.0 | 0.00 | 0.19 | 0.01 | 76 | 1017.1 |
| 20260901170736 | 86 | 46 | 9.0 | 11.0 | 0.00 | 0.19 | 0.01 | 77 | 1017.2 |
| 20260901170240 | 86 | 79 | 9.0 | 12.0 | 0.00 | 0.19 | 0.01 | 78 | 1017.1 |
| 20260901165743 | 86 | 63 | 9.0 | 14.0 | 0.00 | 0.19 | 0.01 | 78 | 1017.2 |
| 20260901165227 | 86 | 66 | 10.0 | 14.0 | 0.00 | 0.19 | 0.01 | 79 | 1017.2 |
| 20260901164712 | 86 | 58 | 9.0 | 12.0 | 0.00 | 0.19 | 0.01 | 76 | 1017.4 |
| 20260901164217 | 86 | 58 | 9.0 | 11.0 | 0.00 | 0.19 | 0.01 | 76 | 1017.3 |
| 20260901163722 | 86 | 59 | 9.0 | 10.0 | 0.00 | 0.19 | 0.01 | 76 | 1017.3 |
| 20260901163228 | 86 | 62 | 8.0 | 10.0 | 0.00 | 0.19 | 0.01 | 77 | 1017.4 |
| 20260901162717 | 85 | 61 | 6.0 | 10.0 | 0.00 | 0.19 | 0.01 | 77 | 1017.5 |
| 20260901162241 | 85 | 59 | 7.0 | 11.0 | 0.00 | 0.19 | 0.01 | 77 | 1017.5 |
| 20260901161746 | 86 | 51 | 8.0 | 11.0 | 0.00 | 0.19 | 0.01 | 77 | 1017.5 |
| 20260901161209 | 86 | 51 | 7.0 | 10.0 | 0.00 | 0.19 | 0.01 | 78 | 1017.5 |
| 20260901160725 | 85 | 48 | 7.0 | 9.0 | 0.00 | 0.19 | 0.01 | 79 | 1017.5 |
| 20260901122726 | 79 | 47 | 1.0 | 3.0 | 0.00 | 0.19 | 0.01 | 93 | 1017.3 |
| 20260901122211 | 79 | 47 | 2.0 | 4.0 | 0.00 | 0.19 | 0.01 | 93 | 1017.3 |
| 20260901121716 | 79 | 54 | 2.0 | 5.0 | 0.00 | 0.19 | 0.01 | 93 | 1017.2 |
| 20260901121220 | 79 | 43 | 4.0 | 6.0 | 0.00 | 0.19 | 0.01 | 93 | 1017.1 |
| 20260901120717 | 79 | 40 | 4.0 | 6.0 | 0.00 | 0.19 | 0.01 | 93 | 1017.1 |
| 20260901120243 | 79 | 18 | 4.0 | 6.0 | 0.00 | 0.19 | 0.01 | 93 | 1017.1 |
| 20260901115726 | 79 | 9 | 4.0 | 5.0 | 0.00 | 0.19 | 0.01 | 93 | 1017.0 |
| 20260901115211 | 79 | 35 | 3.0 | 5.0 | 0.00 | 0.19 | 0.01 | 93 | 1016.9 |
| 20260901114737 | 79 | 32 | 4.0 | 5.0 | 0.01 | 0.19 | 0.01 | 93 | 1016.8 |
| 20260901114224 | 79 | 34 | 4.0 | 4.0 | 0.01 | 0.19 | 0.01 | 93 | 1016.7 |
| 20260901113709 | 79 | 46 | 3.0 | 4.0 | 0.01 | 0.19 | 0.01 | 94 | 1016.7 |
| 20260901113215 | 79 | 38 | 2.0 | 4.0 | 0.01 | 0.19 | 0.01 | 94 | 1016.7 |
| 20260901112719 | 79 | 51 | 2.0 | 4.0 | 0.01 | 0.19 | 0.01 | 94 | 1016.6 |
| 20260901112224 | 79 | 58 | 2.0 | 3.0 | 0.01 | 0.19 | 0.01 | 94 | 1016.5 |
| 20260901111709 | 78 | 54 | 1.0 | 3.0 | 0.01 | 0.19 | 0.01 | 94 | 1016.5 |
| 20260901111214 | 78 | 61 | 2.0 | 3.0 | 0.01 | 0.19 | 0.01 | 94 | 1016.4 |
| 20260901110719 | 78 | 59 | 2.0 | 4.0 | 0.01 | 0.19 | 0.01 | 94 | 1016.3 |
| 20260901110224 | 78 | 55 | 2.0 | 4.0 | 0.01 | 0.19 | 0.01 | 94 | 1016.3 |
| 20260901105708 | 78 | 51 | 2.0 | 4.0 | 0.01 | 0.19 | 0.01 | 94 | 1016.2 |
| 20260901105217 | 78 | 43 | 3.0 | 4.0 | 0.01 | 0.19 | 0.01 | 94 | 1016.2 |
| 20260901104722 | 78 | 40 | 3.0 | 6.0 | 0.00 | 0.18 | 0.00 | 94 | 1016.2 |
| 20260901104228 | 78 | 46 | 3.0 | 6.0 | 0.00 | 0.18 | 0.00 | 94 | 1016.1 |
| 20260901103733 | 78 | 38 | 4.0 | 5.0 | 0.00 | 0.18 | 0.00 | 94 | 1016.1 |
| 20260901103218 | 78 | 47 | 3.0 | 3.0 | 0.00 | 0.18 | 0.00 | 94 | 1016.0 |
| 20260901102723 | 78 | 49 | 1.0 | 2.0 | 0.00 | 0.18 | 0.00 | 94 | 1016.0 |
| 20260901102227 | 78 | 49 | 0.0 | 2.0 | 0.00 | 0.18 | 0.00 | 94 | 1016.0 |
| 20260901101712 | 78 | 49 | 1.0 | 2.0 | 0.00 | 0.18 | 0.00 | 94 | 1015.9 |
| 20260901101216 | 78 | 49 | 1.0 | 2.0 | 0.00 | 0.18 | 0.00 | 94 | 1015.9 |
| 20260901100714 | 78 | 49 | 1.0 | 3.0 | 0.00 | 0.18 | 0.00 | 94 | 1016.0 |
| 20260901100218 | 78 | 49 | 2.0 | 3.0 | 0.00 | 0.18 | 0.00 | 94 | 1015.9 |
| 20260901095722 | 78 | 55 | 2.0 | 3.0 | 0.00 | 0.18 | 0.00 | 94 | 1015.9 |
| 20260901095227 | 78 | 64 | 2.0 | 3.0 | 0.00 | 0.18 | 0.00 | 94 | 1015.9 |
| 20260901094712 | 78 | 79 | 3.0 | 4.0 | 0.00 | 0.18 | 0.00 | 95 | 1015.9 |
| 20260901094238 | 78 | 61 | 2.0 | 5.0 | 0.00 | 0.18 | 0.00 | 95 | 1015.8 |
| 20260901093722 | 78 | 61 | 4.0 | 6.0 | 0.00 | 0.18 | 0.00 | 95 | 1015.9 |
| 20260901093227 | 78 | 45 | 4.0 | 6.0 | 0.00 | 0.18 | 0.00 | 95 | 1015.9 |
| 20260901092712 | 78 | 45 | 5.0 | 6.0 | 0.00 | 0.18 | 0.00 | 94 | 1015.9 |
| 20260901092217 | 78 | 32 | 4.0 | 6.0 | 0.00 | 0.18 | 0.00 | 94 | 1015.9 |
| 20260901091722 | 78 | 35 | 4.0 | 5.0 | 0.00 | 0.18 | 0.00 | 94 | 1015.9 |
| 20260901091227 | 78 | 58 | 3.0 | 4.0 | 0.00 | 0.18 | 0.00 | 94 | 1015.9 |
| 20260901090712 | 78 | 51 | 2.0 | 4.0 | 0.00 | 0.18 | 0.00 | 94 | 1015.9 |
| 20260901090217 | 78 | 30 | 2.0 | 4.0 | 0.00 | 0.18 | 0.00 | 94 | 1015.9 |
| 20260901085741 | 78 | 40 | 2.0 | 3.0 | 0.00 | 0.18 | 0.00 | 94 | 1015.9 |
| 20260901085244 | 79 | 54 | 2.0 | 3.0 | 0.00 | 0.18 | 0.00 | 94 | 1015.8 |
| 20260901084713 | 78 | 37 | 2.0 | 3.0 | 0.00 | 0.18 | 0.00 | 94 | 1015.9 |
| 20260901084218 | 78 | 54 | 2.0 | 4.0 | 0.00 | 0.18 | 0.00 | 94 | 1015.9 |
| 20260901083743 | 78 | 49 | 2.0 | 4.0 | 0.00 | 0.18 | 0.00 | 94 | 1015.9 |
| 20260901083227 | 79 | 56 | 3.0 | 4.0 | 0.00 | 0.18 | 0.00 | 94 | 1015.9 |
| 20260901082712 | 79 | 45 | 2.0 | 6.0 | 0.00 | 0.18 | 0.00 | 94 | 1015.9 |
| 20260901082217 | 79 | 56 | 5.0 | 6.0 | 0.00 | 0.18 | 0.00 | 94 | 1015.9 |
| 20260901081722 | 79 | 56 | 4.0 | 5.0 | 0.00 | 0.18 | 0.00 | 94 | 1015.8 |
| 20260901081226 | 79 | 76 | 3.0 | 5.0 | 0.00 | 0.18 | 0.00 | 94 | 1015.9 |
| 20260901080721 | 79 | 82 | 1.0 | 5.0 | 0.00 | 0.18 | 0.00 | 94 | 1015.8 |
| 20260901080246 | 79 | 97 | 3.0 | 6.0 | 0.00 | 0.18 | 0.00 | 94 | 1015.9 |
| 20260901075709 | 79 | 73 | 5.0 | 6.0 | 0.00 | 0.18 | 0.00 | 94 | 1016.0 |
| 20260901075214 | 79 | 68 | 2.0 | 3.0 | 0.00 | 0.18 | 0.00 | 94 | 1016.0 |
| 20260901074723 | 79 | 57 | 1.0 | 3.0 | 0.00 | 0.18 | 0.00 | 94 | 1015.9 |
| 20260901074228 | 79 | 77 | 2.0 | 4.0 | 0.00 | 0.18 | 0.00 | 94 | 1016.0 |
| 20260901073733 | 79 | 49 | 3.0 | 4.0 | 0.00 | 0.18 | 0.00 | 94 | 1016.0 |
| 20260901073237 | 79 | 38 | 2.0 | 3.0 | 0.00 | 0.18 | 0.00 | 94 | 1016.0 |
| 20260901072741 | 79 | 49 | 2.0 | 3.0 | 0.00 | 0.18 | 0.00 | 94 | 1015.9 |
| 20260901072245 | 79 | 51 | 2.0 | 3.0 | 0.00 | 0.18 | 0.00 | 94 | 1016.0 |
| 20260901071709 | 79 | 23 | 0.0 | 2.0 | 0.00 | 0.18 | 0.00 | 94 | 1016.0 |
| 20260901071234 | 79 | 9 | 0.0 | 3.0 | 0.00 | 0.18 | 0.00 | 94 | 1016.1 |
| 20260901070718 | 79 | 15 | 1.0 | 3.0 | 0.00 | 0.18 | 0.00 | 94 | 1016.1 |
| 20260901070243 | 79 | 9 | 1.0 | 4.0 | 0.00 | 0.18 | 0.00 | 94 | 1016.2 |
| 20260901065728 | 79 | 21 | 3.0 | 4.0 | 0.00 | 0.18 | 0.00 | 94 | 1016.2 |
| 20260901065214 | 79 | 36 | 1.0 | 3.0 | 0.00 | 0.18 | 0.00 | 94 | 1016.3 |
| 20260901064719 | 79 | 16 | 2.0 | 3.0 | 0.00 | 0.18 | 0.00 | 94 | 1016.3 |
| 20260901064225 | 79 | 13 | 2.0 | 3.0 | 0.00 | 0.18 | 0.00 | 94 | 1016.4 |
| 20260901063711 | 79 | 18 | 1.0 | 2.0 | 0.00 | 0.18 | 0.00 | 94 | 1016.4 |
| 20260901063221 | 79 | 351 | 0.0 | 2.0 | 0.00 | 0.18 | 0.00 | 94 | 1016.5 |
| 20260901062727 | 79 | 2 | 1.0 | 3.0 | 0.00 | 0.18 | 0.00 | 94 | 1016.7 |
| 20260901062233 | 79 | 50 | 1.0 | 3.0 | 0.00 | 0.18 | 0.00 | 94 | 1016.6 |
| 20260901061737 | 79 | 63 | 1.0 | 3.0 | 0.00 | 0.18 | 0.00 | 94 | 1016.6 |
| 20260901061221 | 79 | 80 | 2.0 | 4.0 | 0.00 | 0.18 | 0.00 | 94 | 1016.7 |
| 20260901060737 | 79 | 63 | 2.0 | 4.0 | 0.00 | 0.18 | 0.00 | 94 | 1016.7 |
| 20260901060221 | 79 | 47 | 3.0 | 4.0 | 0.00 | 0.18 | 0.00 | 94 | 1016.8 |
| 20260901055726 | 79 | 52 | 2.0 | 4.0 | 0.00 | 0.18 | 0.00 | 94 | 1016.8 |
| 20260901055211 | 79 | 60 | 2.0 | 3.0 | 0.00 | 0.18 | 0.00 | 94 | 1016.9 |
| 20260901054716 | 79 | 67 | 1.0 | 3.0 | 0.00 | 0.18 | 0.00 | 94 | 1016.8 |
| 20260901054221 | 79 | 42 | 1.0 | 3.0 | 0.00 | 0.18 | 0.00 | 94 | 1016.9 |
| 20260901053725 | 79 | 51 | 2.0 | 4.0 | 0.00 | 0.18 | 0.00 | 94 | 1017.0 |
| 20260901053210 | 79 | 49 | 3.0 | 6.0 | 0.00 | 0.18 | 0.00 | 94 | 1017.1 |
| 20260901052735 | 79 | 35 | 4.0 | 6.0 | 0.00 | 0.18 | 0.00 | 93 | 1017.3 |
| 20260901052222 | 79 | 45 | 3.0 | 5.0 | 0.00 | 0.18 | 0.00 | 93 | 1017.3 |
| 20260901051726 | 79 | 55 | 4.0 | 5.0 | 0.00 | 0.18 | 0.00 | 93 | 1017.3 |
| 20260901051231 | 79 | 61 | 2.0 | 3.0 | 0.00 | 0.18 | 0.00 | 93 | 1017.1 |
| 20260901050734 | 79 | 50 | 2.0 | 3.0 | 0.00 | 0.18 | 0.00 | 93 | 1017.2 |
| 20260901050238 | 79 | 32 | 2.0 | 3.0 | 0.00 | 0.18 | 0.00 | 93 | 1017.3 |
| 20260901045741 | 79 | 40 | 1.0 | 2.0 | 0.00 | 0.18 | 0.00 | 93 | 1017.3 |
| 20260901045225 | 79 | 63 | 1.0 | 3.0 | 0.00 | 0.18 | 0.00 | 93 | 1017.3 |
| 20260901044749 | 79 | 30 | 2.0 | 3.0 | 0.00 | 0.18 | 0.00 | 93 | 1017.3 |
| 20260901044214 | 80 | 34 | 2.0 | 3.0 | 0.00 | 0.18 | 0.00 | 93 | 1017.2 |
| 20260901043738 | 80 | 44 | 2.0 | 3.0 | 0.00 | 0.18 | 0.00 | 93 | 1017.3 |
| 20260901043223 | 80 | 28 | 3.0 | 3.0 | 0.00 | 0.18 | 0.00 | 93 | 1017.3 |
| 20260901042728 | 80 | 50 | 3.0 | 3.0 | 0.00 | 0.18 | 0.00 | 93 | 1017.4 |
| 20260901042232 | 80 | 59 | 2.0 | 3.0 | 0.00 | 0.18 | 0.00 | 93 | 1017.4 |
| 20260901041716 | 80 | 64 | 0.0 | 2.0 | 0.00 | 0.18 | 0.00 | 93 | 1017.3 |
| 20260901041221 | 80 | 64 | 1.0 | 2.0 | 0.00 | 0.18 | 0.00 | 93 | 1017.4 |
| 20260901040717 | 80 | 49 | 1.0 | 2.0 | 0.00 | 0.18 | 0.00 | 93 | 1017.4 |
| 20260901040217 | 80 | 22 | 1.0 | 3.0 | 0.00 | 0.18 | 0.18 | 93 | 1017.4 |
| 20260901035721 | 80 | 25 | 2.0 | 4.0 | 0.00 | 0.18 | 0.18 | 93 | 1017.4 |
| 20260901035228 | 80 | 37 | 2.0 | 4.0 | 0.00 | 0.18 | 0.18 | 93 | 1017.4 |
| 20260901034714 | 80 | 45 | 3.0 | 4.0 | 0.00 | 0.18 | 0.18 | 93 | 1017.6 |
| 20260901034239 | 80 | 42 | 3.0 | 4.0 | 0.00 | 0.18 | 0.18 | 93 | 1017.6 |